TimeMST,TemperatureF,Dew PointF,Humidity,Sea Level PressureIn,VisibilityMPH,Wind Direction,Wind SpeedMPH,Gust SpeedMPH,PrecipitationIn,Events,Conditions,WindDirDegrees,DateUTC
12:53 AM,33.1,23.0,66,30.09,10.0,WNW,11.5,-,N/A,,Overcast,300,2013-01-16 07:53:00
1:53 AM,33.1,21.9,64,30.09,10.0,WNW,16.1,-,N/A,,Overcast,290,2013-01-16 08:53:00
2:53 AM,30.9,21.9,69,30.11,10.0,WNW,11.5,-,N/A,,Overcast,290,2013-01-16 09:53:00
3:53 AM,28.9,19.9,69,30.12,10.0,WSW,13.8,-,N/A,,Mostly Cloudy,250,2013-01-16 10:53:00
4:53 AM,32.0,21.0,64,30.09,10.0,WSW,19.6,-,N/A,,Overcast,250,2013-01-16 11:53:00
5:53 AM,28.9,19.0,67,30.12,10.0,WSW,17.3,-,N/A,,Clear,240,2013-01-16 12:53:00
6:53 AM,28.0,19.0,69,30.14,10.0,West,8.1,-,N/A,,Scattered Clouds,270,2013-01-16 13:53:00
7:53 AM,34.0,19.9,56,30.13,10.0,West,18.4,-,N/A,,Overcast,270,2013-01-16 14:53:00
8:53 AM,33.1,19.0,56,30.17,10.0,WSW,15.0,-,N/A,,Clear,250,2013-01-16 15:53:00
9:53 AM,36.0,19.0,50,30.17,10.0,West,15.0,-,N/A,,Mostly Cloudy,260,2013-01-16 16:53:00
10:53 AM,37.0,19.9,50,30.19,10.0,West,13.8,-,N/A,,Clear,260,2013-01-16 17:53:00
11:53 AM,39.0,19.9,46,30.18,10.0,WNW,11.5,-,N/A,,Clear,290,2013-01-16 18:53:00
12:53 PM,39.2,21.2,49,30.12,10.0,WNW,15.0,-,N/A,,Clear,300,2013-01-16 19:53:00
1:53 PM,39.0,21.0,49,30.18,10.0,NW,15.0,-,N/A,,Clear,310,2013-01-16 20:53:00
2:53 PM,39.0,19.9,46,30.20,10.0,NW,16.1,-,N/A,,Clear,320,2013-01-16 21:53:00
3:53 PM,36.0,23.0,59,30.24,10.0,WNW,9.2,-,N/A,,Clear,290,2013-01-16 22:53:00
4:53 PM,32.0,21.9,66,30.27,10.0,WNW,10.4,-,N/A,,Clear,290,2013-01-16 23:53:00
5:53 PM,30.0,19.0,64,30.31,10.0,WNW,10.4,-,N/A,,Clear,290,2013-01-17 00:53:00
6:53 PM,30.9,18.0,59,30.32,10.0,WNW,12.7,-,N/A,,Clear,290,2013-01-17 01:53:00
7:53 PM,27.0,17.1,66,30.32,10.0,West,10.4,-,N/A,,Clear,260,2013-01-17 02:53:00
8:53 PM,27.0,17.1,66,30.34,10.0,West,12.7,-,N/A,,Clear,270,2013-01-17 03:53:00
9:53 PM,28.0,17.1,63,30.34,10.0,West,13.8,-,N/A,,Clear,270,2013-01-17 04:53:00
10:53 PM,28.0,17.1,63,30.34,10.0,West,15.0,-,N/A,,Clear,260,2013-01-17 05:53:00
11:53 PM,27.0,16.0,63,30.36,10.0,West,12.7,-,N/A,,Clear,260,2013-01-17 06:53:00